TimeCST,TemperatureF,Dew PointF,Humidity,Sea Level PressureIn,VisibilityMPH,Wind Direction,Wind SpeedMPH,Gust SpeedMPH,PrecipitationIn,Events,Conditions,WindDirDegrees,DateUTC
12:15 AM,37.4,35.6,93,30.03,7.0,SSE,3.5,-,N/A,,Overcast,150,2013-02-10 06:15:00
12:35 AM,37.4,35.6,93,30.03,8.0,SE,6.9,-,N/A,,Overcast,140,2013-02-10 06:35:00
12:55 AM,39.2,35.6,87,30.02,8.0,SSE,5.8,-,N/A,,Overcast,150,2013-02-10 06:55:00
1:15 AM,39.2,33.8,81,30.01,10.0,SE,5.8,-,N/A,,Overcast,140,2013-02-10 07:15:00
1:35 AM,39.2,33.8,81,30.00,10.0,SE,9.2,-,N/A,,Overcast,140,2013-02-10 07:35:00
1:55 AM,39.2,33.8,81,29.99,9.0,SE,8.1,-,0.01,,Overcast,130,2013-02-10 07:55:00
2:15 AM,39.2,33.8,81,29.97,10.0,SE,11.5,-,N/A,,Overcast,140,2013-02-10 08:15:00
2:35 AM,39.2,35.6,87,29.96,10.0,SSE,9.2,-,N/A,,Overcast,150,2013-02-10 08:35:00
2:55 AM,39.2,35.6,87,29.95,10.0,SSE,5.8,-,N/A,,Overcast,160,2013-02-10 08:55:00
3:15 AM,39.2,35.6,87,29.94,10.0,SSE,6.9,-,N/A,,Overcast,150,2013-02-10 09:15:00
3:35 AM,39.2,35.6,87,29.91,10.0,SE,8.1,-,N/A,,Overcast,140,2013-02-10 09:35:00
3:55 AM,41.0,35.6,81,29.90,10.0,SSE,10.4,-,N/A,,Overcast,150,2013-02-10 09:55:00
4:15 AM,41.0,35.6,81,29.89,10.0,SE,11.5,-,N/A,,Overcast,140,2013-02-10 10:15:00
4:35 AM,42.8,35.6,76,29.90,10.0,SSE,9.2,-,N/A,,Overcast,150,2013-02-10 10:35:00
4:55 AM,42.8,35.6,76,29.88,10.0,SE,9.2,-,N/A,,Overcast,140,2013-02-10 10:55:00
5:15 AM,42.8,37.4,81,29.87,10.0,SE,6.9,-,N/A,,Overcast,140,2013-02-10 11:15:00
5:35 AM,42.8,37.4,81,29.87,10.0,SE,9.2,-,N/A,,Overcast,140,2013-02-10 11:35:00
5:55 AM,42.8,37.4,81,29.87,10.0,SE,10.4,-,N/A,,Overcast,140,2013-02-10 11:55:00
6:15 AM,42.8,37.4,81,29.88,10.0,SSE,8.1,-,N/A,,Overcast,150,2013-02-10 12:15:00
6:35 AM,44.6,37.4,76,29.86,10.0,SE,9.2,-,N/A,,Overcast,140,2013-02-10 12:35:00
6:55 AM,44.6,37.4,76,29.85,10.0,SSE,15.0,-,N/A,,Overcast,150,2013-02-10 12:55:00
7:15 AM,46.4,39.2,76,29.83,10.0,SE,15.0,-,N/A,,Overcast,140,2013-02-10 13:15:00
7:35 AM,46.4,37.4,71,29.81,10.0,SSE,13.8,-,N/A,,Overcast,150,2013-02-10 13:35:00
7:55 AM,46.4,37.4,71,29.82,10.0,SSE,11.5,19.6,N/A,Thunderstorm,Overcast,160,2013-02-10 13:55:00
8:15 AM,44.6,39.2,81,29.88,8.0,WSW,11.5,-,0.09,Thunderstorm,Thunderstorm,240,2013-02-10 14:15:00
8:35 AM,44.6,41.0,87,29.87,4.0,South,10.4,-,0.29,Thunderstorm,Overcast,170,2013-02-10 14:35:00
8:55 AM,44.6,42.8,93,29.86,8.0,SSE,11.5,16.1,0.38,,Overcast,160,2013-02-10 14:55:00
9:15 AM,44.6,42.8,93,29.85,8.0,SSE,13.8,-,0.10,,Overcast,160,2013-02-10 15:15:00
9:35 AM,44.6,42.8,93,29.84,7.0,SSE,12.7,19.6,0.15,,Overcast,150,2013-02-10 15:35:00
9:55 AM,44.6,42.8,93,29.79,7.0,SE,13.8,-,0.18,,Overcast,140,2013-02-10 15:55:00
10:15 AM,44.6,42.8,93,29.75,10.0,SSE,8.1,-,0.01,,Mostly Cloudy,150,2013-02-10 16:15:00
10:35 AM,44.6,42.8,93,29.77,10.0,South,11.5,19.6,0.01,,Mostly Cloudy,170,2013-02-10 16:35:00
10:55 AM,46.4,42.8,87,29.77,10.0,SSE,16.1,-,0.01,,Overcast,160,2013-02-10 16:55:00
11:15 AM,46.4,42.8,87,29.75,10.0,SSE,12.7,-,N/A,,Overcast,150,2013-02-10 17:15:00
11:35 AM,46.4,44.6,93,29.74,10.0,SSE,12.7,-,N/A,,Overcast,160,2013-02-10 17:35:00
11:55 AM,48.2,44.6,87,29.72,10.0,SSE,15.0,23.0,N/A,,Overcast,160,2013-02-10 17:55:00
12:15 PM,48.2,46.4,93,29.70,9.0,SSE,17.3,27.6,N/A,,Overcast,150,2013-02-10 18:15:00
12:35 PM,48.2,46.4,93,29.68,3.0,SSE,17.3,24.2,N/A,,Overcast,160,2013-02-10 18:35:00
12:55 PM,48.2,46.4,93,29.66,1.8,SSE,17.3,24.2,N/A,,Overcast,160,2013-02-10 18:55:00
1:15 PM,50.0,48.2,94,29.64,1.0,SSE,18.4,24.2,N/A,,Overcast,160,2013-02-10 19:15:00
1:35 PM,50.0,48.2,94,29.63,0.5,SSE,18.4,24.2,N/A,,Overcast,160,2013-02-10 19:35:00
1:55 PM,51.8,48.2,88,29.63,0.2,South,13.8,21.9,N/A,,Overcast,170,2013-02-10 19:55:00
2:15 PM,51.8,50.0,94,29.66,0.5,SSW,11.5,17.3,N/A,,Overcast,200,2013-02-10 20:15:00
2:35 PM,51.8,50.0,94,29.66,0.5,South,13.8,17.3,N/A,,Overcast,180,2013-02-10 20:35:00
2:55 PM,51.8,50.0,94,29.67,3.0,South,12.7,-,0.01,,Overcast,180,2013-02-10 20:55:00
3:15 PM,51.8,51.8,100,29.67,3.0,South,12.7,18.4,N/A,,Overcast,180,2013-02-10 21:15:00
3:35 PM,53.6,51.8,94,29.67,7.0,South,10.4,-,N/A,,Overcast,180,2013-02-10 21:35:00
3:55 PM,53.6,51.8,94,29.67,8.0,South,12.7,16.1,N/A,,Overcast,180,2013-02-10 21:55:00
4:15 PM,53.6,51.8,94,29.67,8.0,South,15.0,19.6,N/A,,Overcast,170,2013-02-10 22:15:00
4:35 PM,53.6,51.8,94,29.67,8.0,South,10.4,-,N/A,,Overcast,170,2013-02-10 22:35:00
4:55 PM,53.6,51.8,94,29.67,10.0,South,8.1,-,N/A,,Overcast,180,2013-02-10 22:55:00
5:15 PM,53.6,51.8,94,29.68,10.0,SW,15.0,20.7,N/A,,Mostly Cloudy,220,2013-02-10 23:15:00
5:35 PM,55.4,51.8,88,29.69,10.0,SSW,11.5,18.4,N/A,,Mostly Cloudy,200,2013-02-10 23:35:00
5:55 PM,55.4,51.8,88,29.70,10.0,South,9.2,-,N/A,,Partly Cloudy,180,2013-02-10 23:55:00
6:15 PM,53.6,50.0,88,29.71,10.0,SSW,8.1,-,N/A,,Clear,200,2013-02-11 00:15:00
6:35 PM,53.6,51.8,94,29.72,10.0,SSW,6.9,-,N/A,,Clear,210,2013-02-11 00:35:00
6:55 PM,53.6,50.0,88,29.72,10.0,SSW,8.1,-,N/A,,Clear,210,2013-02-11 00:55:00
7:15 PM,51.8,48.2,88,29.73,10.0,SSW,8.1,-,N/A,,Clear,210,2013-02-11 01:15:00
7:35 PM,51.8,44.6,76,29.74,10.0,SSW,9.2,-,N/A,,Clear,210,2013-02-11 01:35:00
7:55 PM,51.8,37.4,58,29.75,10.0,SW,9.2,-,N/A,,Clear,220,2013-02-11 01:55:00
8:15 PM,51.8,33.8,50,29.76,10.0,WSW,11.5,-,N/A,,Clear,240,2013-02-11 02:15:00
8:35 PM,51.8,32.0,47,29.77,10.0,SW,12.7,18.4,N/A,,Clear,230,2013-02-11 02:35:00
8:55 PM,51.8,30.2,44,29.78,10.0,WSW,11.5,-,N/A,,Clear,240,2013-02-11 02:55:00
9:15 PM,51.8,30.2,44,29.79,10.0,WSW,11.5,-,N/A,,Clear,240,2013-02-11 03:15:00
9:35 PM,51.8,30.2,44,29.79,10.0,SW,13.8,19.6,N/A,,Clear,230,2013-02-11 03:35:00
9:55 PM,51.8,28.4,41,29.79,10.0,WSW,12.7,-,N/A,,Clear,240,2013-02-11 03:55:00
10:15 PM,51.8,28.4,41,29.80,10.0,WSW,15.0,20.7,N/A,,Clear,240,2013-02-11 04:15:00
10:35 PM,51.8,28.4,41,29.80,10.0,WSW,17.3,29.9,N/A,,Clear,240,2013-02-11 04:35:00
10:55 PM,51.8,28.4,41,29.81,10.0,WSW,12.7,28.8,N/A,,Clear,240,2013-02-11 04:55:00
11:15 PM,51.8,28.4,41,29.82,10.0,WSW,12.7,21.9,N/A,,Clear,250,2013-02-11 05:15:00
11:35 PM,50.0,26.6,40,29.83,10.0,WSW,17.3,27.6,N/A,,Clear,240,2013-02-11 05:35:00
11:55 PM,48.2,26.6,43,29.84,10.0,WSW,19.6,34.5,N/A,,Clear,250,2013-02-11 05:55:00